Terminal Aerodrome Forecast
Issued by NWS

Home | Current Version | Previous Version | Text Only | Print | Product List | Glossary On
Versions: 1 2 3 4 5 6 7 8 9 10 11 12 13 14 15 16 17 18 19 20
000
FTUS43 KBIS 281121
TAFJMS
TAF
KJMS 281121Z 2812/2912 14006KT P6SM BKN060
     FM281500 22011KT P6SM SCT040
     FM282200 30013G20KT P6SM VCTS BKN050CB
     FM290300 34011KT P6SM VCSH SCT025 BKN080
     FM290500 36014G19KT P6SM VCSH BKN025=

USA.gov is the U.S. government's official web portal to all federal, state and local government web resources and services.